THORAD AGENA D DEB, 42523

Orbit data source: Space-Track

THORAD AGENA D DEB, 42523 is space debris in SSO originally from a launch on Wed, 08 Apr 1970 UTC launched from the Air Force Western Test Range (AFWTR). Debris objects in space refer to the collection of defunct objects orbiting the Earth. Examples of debris include non-operational satellites, rocket bodies, and fragments generated from explosions, collisions, or faulty payload assembly.

Loading next visibility...
Identifier
42523, 1970-025SD
Orbit
SSO
Country
Flag of USUS
Related business
Manufacturer
Unknown
Mission
Spacecraft
Bus & Motor
Unknown
Mass
Unknown
Launch date (UTC)
1970-04-08 (56 years ago)
Launch vehicle
Unknown
Launch site
Air Force Western Test Range (AFWTR)
Object type
Payload
Rocket body
Debris
Shape & HBR
Unknown shape, 0.1 m
Radar Cross Section
Small (<0.1 m²)

Expand to show TLE details & history
Last TLE update: 1 day ago

TLE from 1 day ago
0 THORAD AGENA D DEB
1 42523U 70025SD  25286.23045537  .00000793  00000-0  86220-3 0  9992
2 42523  99.9671  29.6123 0027481 176.2522 214.7934 13.76145460596376
Epoch: 2025-10-13T05:31Z
TLE epoch observation values (Epoch: 2025-10-13T05:31:51.343Z)
Latitude
30.4037°
Longitude
-81.27583°
Altitude
997.942 km
Speed
7.347 km/s
True Right ascension
01h 34m 53s
True Declination
30° 15' 31"
Sunlit
Object was in full shadow at epoch
Visualization orbit readout
Latitude
Unknown
Longitude
Unknown
Altitude
Unknown
Speed
Unknown
Apparent Right ascension
Unknown
Apparent Declination
Unknown
Sunlit
N/A
Visualization observer readout
Local Sidereal Time
09:04:31
Azimuth
Unknown
Elevation
Unknown
Doppler factor
Unknown
Orbital elements
Apogee altitude
995.078 km
Perigee altitude
954.664 km
Semi-major axis
7,353.008 km
Eccentricity
0.00275
Inclination
99.9671°
RAAN
29.6123°
Arg. of periapsis
176.2522°
True anomaly
214.61421°
Mean anomaly
214.7934°
Eccentric anomaly
214.70376°
Mean motion
3.44228 °/min
Orbital period
104.58 mins
BSTAR
0.0008622
Loading maneuver chart data...
Computing Atmospheric mass density...

Documentation

Showing up to 5 results
|